Location: La Fredeussais
(48.1780°N, 1.3980°W)
Time: 03:23:15
(UTC+00:00)

Cosmos 1745 Rocket - Pass Details

Date: 09 May 2021
Orbit: 951 x 999 km, 83.0° (Epoch: 13 June)

Event Time Altitude Azimuth Distance (km) Brightness Sun altitude
Rises 20:07:45 0° 352° (N) 3,681 7.7 -6.1°
Reaches altitude 10° 20:10:18 10° 355° (N) 2,723 7.0 -6.4°
Maximum altitude 20:16:31 71° 79° (E) 1,019 4.0 -7.3°
Drops below altitude 10° 20:22:37 10° 163° (SSE) 2,678 5.8 -8.1°
Enters shadow 20:24:27 - 165° (SSE) 3,363 6.3 -8.3°
